COSMOS 2251 DEB, 34116

Orbit data source: Space-Track

COSMOS 2251 DEB, 34116 is space debris in LEO originally from a launch on Wed, 16 Jun 1993 UTC launched from the Plesetsk Missile And Space Complex (PKMTR). The debris from Iridium 33, an American commercial communications satellite, has been tracked extensively since its accidental collision with the defunct Russian satellite Cosmos 2251 in 2009. This event, occurring at high speed in low Earth orbit (LEO), generated thousands of pieces of space debris, significantly increasing the risk of further collisions. The Iridium 33 debris cloud has impacted space traffic management and orbital debris mitigation strategies, making it a subject of ongoing study in space situational awareness.

Loading next visibility...
Identifier
34116, 1993-036KM
Orbit
LEO
Country
Flag of CISCIS
Related business
Manufacturer
Unknown
Mission
Spacecraft
Bus & Motor
Unknown
Mass
Unknown
Launch date (UTC)
1993-06-16 (33 years ago)
Launch vehicle
Unknown
Launch site
Plesetsk Missile And Space Complex (PKMTR)
Object type
Payload
Rocket body
Debris
Shape & HBR
Unknown shape, 0.2 m
Radar Cross Section
Small (<0.1 m²)

Expand to show TLE details & history
Last TLE update: 5 hours ago

TLE from 5 hours ago
0 COSMOS 2251 DEB
1 34116U 93036KM  26037.11889927  .00003942  00000-0  95200-3 0  9996
2 34116  74.0398  78.2810 0009330 152.7475 228.7869 14.53443531892914
Epoch: 2026-02-06T02:51Z
TLE epoch observation values (Epoch: 2026-02-06T02:51:12.896Z)
Latitude
20.60145°
Longitude
-94.64573°
Altitude
721.052 km
Speed
7.495 km/s
True Right ascension
05h 37m 40s
True Declination
20° 29' 16"
Sunlit
Object was in full shadow at epoch
Visualization orbit readout
Latitude
Unknown
Longitude
Unknown
Altitude
Unknown
Speed
Unknown
Apparent Right ascension
Unknown
Apparent Declination
Unknown
Sunlit
N/A
Visualization observer readout
Local Sidereal Time
09:26:51
Azimuth
Unknown
Elevation
Unknown
Doppler factor
Unknown
Orbital elements
Apogee altitude
718.643 km
Perigee altitude
705.413 km
Semi-major axis
7,090.165 km
Eccentricity
0.00093
Inclination
74.0398°
RAAN
78.281°
Arg. of periapsis
152.7475°
True anomaly
228.70653°
Mean anomaly
228.7869°
Eccentric anomaly
228.74671°
Mean motion
3.63545 °/min
Orbital period
99.02 mins
BSTAR
0.000952
Loading maneuver chart data...
Computing Atmospheric mass density...

Documentation

Showing up to 5 results
|